N5XJB Weather Reports


time (UTC)temp
F
wind
direction
speed
knots
gust
knots
rain 1hr
in
rain 24hr
in
rain mn
in
humidity
%
barometer
mb
20260510021213 73 49 0.0 0.0 0.00 0.14 0.14 97 1011.0
20260510020707 73 48 0.0 0.0 0.00 0.14 0.14 97 1011.0
20260510020203 73 48 0.0 0.0 0.00 0.14 0.14 97 1010.7
20260510015659 73 48 0.0 0.0 0.12 0.14 0.14 97 1010.4
20260510015155 73 48 0.0 0.0 0.12 0.14 0.14 97 1010.4
20260510014650 73 45 0.0 0.0 0.12 0.14 0.14 97 1010.4
20260510014148 73 45 0.0 0.0 0.12 0.14 0.14 96 1010.0
20260510013643 73 45 0.0 0.0 0.12 0.14 0.14 96 1010.0
20260510013139 73 45 0.0 0.0 0.12 0.14 0.14 95 1009.7
20260510012638 73 45 0.0 0.0 0.11 0.12 0.12 95 1010.0
20260510012134 73 45 0.0 0.0 0.11 0.12 0.12 94 1010.0
20260510011629 74 45 0.0 0.0 0.09 0.11 0.11 92 1010.0
20260510011125 75 48 0.9 0.9 0.04 0.06 0.06 89 1010.4
20260510010621 75 48 0.0 0.0 0.00 0.01 0.01 85 1010.0
20260510010118 75 302 1.7 1.7 0.00 0.01 0.01 86 1010.0
20260510005614 78 320 3.5 3.5 0.00 0.00 0.00 84 1010.0
20260510005111 79 313 1.7 1.7 0.00 0.00 0.00 80 1009.7
20260510004609 81 120 0.0 0.0 0.00 0.00 0.00 75 1009.7
20260510004107 82 120 0.0 0.0 0.00 0.00 0.00 70 1009.7
20260510003604 83 120 0.0 0.0 0.00 0.00 0.00 67 1009.3
20260510003059 84 342 1.7 1.7 0.00 0.00 0.00 64 1009.3
20260510002554 87 44 2.6 2.6 0.00 0.00 0.00 65 1009.0
20260510002052 87 164 0.0 0.0 0.00 0.00 0.00 66 1009.0
20260510001549 87 194 0.9 0.9 0.00 0.00 0.00 66 1009.0
20260510001048 87 204 0.0 0.0 0.00 0.00 0.00 67 1009.3
20260510000542 86 198 0.0 0.0 0.00 0.00 0.00 66 1009.0
20260510000039 85 235 1.7 1.7 0.00 0.00 0.00 64 1009.0
20260509235536 86 168 0.0 0.0 0.00 0.00 0.00 63 1009.0
20260509235033 86 168 0.0 0.0 0.00 0.00 0.00 62 1009.0
20260509234529 86 168 0.0 0.0 0.00 0.00 0.00 62 1009.0
20260509234027 86 168 0.0 0.0 0.00 0.00 0.00 63 1008.7
20260509233524 86 168 0.0 0.0 0.00 0.00 0.00 61 1009.0
20260509233021 86 168 0.0 0.0 0.00 0.00 0.00 61 1009.0
20260509232518 86 144 0.9 0.9 0.00 0.00 0.00 62 1009.0
20260509232014 86 142 0.0 0.0 0.00 0.00 0.00 62 1009.0
20260509231511 87 141 1.7 1.7 0.00 0.00 0.00 60 1009.0
20260509231009 87 141 0.0 0.0 0.00 0.00 0.00 60 1009.0
20260509230505 87 141 0.0 0.0 0.00 0.00 0.00 59 1008.7
20260509230002 88 141 0.0 0.0 0.00 0.00 0.00 59 1008.7
20260509225458 89 256 0.0 0.0 0.00 0.00 0.00 58 1008.7
20260509224954 89 288 0.0 0.0 0.00 0.00 0.00 55 1008.7
20260509224449 90 288 0.0 0.0 0.00 0.00 0.00 55 1008.7
20260509223946 90 288 2.6 2.6 0.00 0.00 0.00 55 1008.7
20260509223443 90 282 0.0 0.0 0.00 0.00 0.00 54 1008.7
20260509222941 91 300 0.0 0.0 0.00 0.00 0.00 52 1008.7
20260509222436 91 280 1.7 1.7 0.00 0.00 0.00 52 1008.7
20260509221932 91 324 0.0 0.0 0.00 0.00 0.00 54 1008.7
20260509221429 92 288 0.0 0.0 0.00 0.00 0.00 53 1008.7
20260509220924 92 300 1.7 1.7 0.00 0.00 0.00 54 1008.7
20260509220420 91 288 0.0 0.0 0.00 0.00 0.00 53 1008.3
20260509215917 91 288 1.7 1.7 0.00 0.00 0.00 54 1008.7
20260509215412 91 306 1.7 1.7 0.00 0.00 0.00 55 1008.3
20260509214910 89 307 0.0 0.0 0.00 0.00 0.00 56 1008.7
20260509214407 92 306 0.9 0.9 0.00 0.00 0.00 54 1008.7
20260509213904 91 300 1.7 1.7 0.00 0.00 0.00 56 1008.7
20260509213359 91 300 1.7 1.7 0.00 0.00 0.00 56 1008.7
20260509212857 90 300 1.7 1.7 0.00 0.00 0.00 57 1008.7
20260509212354 90 208 1.7 1.7 0.00 0.00 0.00 57 1008.7
20260509211850 90 288 0.0 0.0 0.00 0.00 0.00 57 1008.7
20260509211346 91 312 0.0 0.0 0.00 0.00 0.00 57 1008.7
20260509210843 91 312 2.6 2.6 0.00 0.00 0.00 55 1008.7
20260509210341 91 286 0.0 0.0 0.00 0.00 0.00 57 1008.7
20260509205840 89 282 1.7 1.7 0.00 0.00 0.00 59 1008.7
20260509205335 91 282 1.7 1.7 0.00 0.00 0.00 58 1009.0
20260509204832 89 276 1.7 1.7 0.00 0.00 0.00 56 1009.3
20260509204328 89 312 0.0 0.0 0.00 0.00 0.00 58 1009.3
20260509203824 89 300 1.7 1.7 0.00 0.00 0.00 59 1009.3
20260509203321 89 288 0.0 0.0 0.00 0.00 0.00 58 1009.0
20260509202817 89 288 0.0 0.0 0.00 0.00 0.00 57 1009.3
20260509202314 88 280 0.0 0.0 0.00 0.00 0.00 59 1009.3
20260509201813 91 286 1.7 1.7 0.00 0.00 0.00 57 1009.3
20260509201310 90 255 0.0 0.0 0.00 0.00 0.00 58 1009.3
20260509200806 90 126 1.7 1.7 0.00 0.00 0.00 58 1009.7
20260509200302 91 280 0.0 0.0 0.00 0.00 0.00 57 1009.7
20260509195758 90 286 0.0 0.0 0.00 0.00 0.00 59 1009.7
20260509195254 91 270 1.7 1.7 0.00 0.00 0.00 58 1009.7
20260509194748 90 280 2.6 2.6 0.00 0.00 0.00 58 1009.7
20260509194244 89 54 0.0 0.0 0.00 0.00 0.00 62 1010.0
20260509193742 89 282 0.9 0.9 0.00 0.00 0.00 62 1009.7
20260509193241 88 282 1.7 1.7 0.00 0.00 0.00 62 1010.0
20260509192738 87 286 0.0 0.0 0.00 0.00 0.00 64 1010.0
20260509192232 86 280 0.0 0.0 0.00 0.00 0.00 66 1009.7
20260509191728 85 324 0.0 0.0 0.00 0.00 0.00 66 1010.4
20260509191225 87 188 0.0 0.0 0.00 0.00 0.00 62 1010.0
20260509190721 88 275 0.0 0.0 0.00 0.00 0.00 62 1010.0
20260509190218 87 306 2.6 2.6 0.00 0.00 0.00 63 1009.7
20260509185716 87 288 0.0 0.0 0.00 0.00 0.00 65 1010.0
20260509185212 86 286 0.0 0.0 0.00 0.00 0.00 67 1010.4
20260509184709 87 282 1.7 1.7 0.00 0.00 0.00 66 1010.4
20260509184206 87 282 0.0 0.0 0.00 0.00 0.00 65 1010.7
20260509183702 86 294 2.6 2.6 0.00 0.00 0.00 64 1010.7
20260509183158 86 215 1.7 1.7 0.00 0.00 0.00 66 1010.7
20260509182653 84 129 0.0 0.0 0.00 0.00 0.00 68 1010.4
20260509182151 86 73 1.7 1.7 0.00 0.00 0.00 69 1010.7
20260509181649 85 294 1.7 1.7 0.00 0.00 0.00 69 1010.7
20260509181146 85 50 0.9 0.9 0.00 0.00 0.00 66 1010.7
20260509180643 85 112 0.9 0.9 0.00 0.00 0.00 69 1011.0
20260509180139 85 274 1.7 1.7 0.00 0.00 0.00 70 1011.0
20260509175635 85 100 0.0 0.0 0.00 0.00 0.00 70 1011.0
20260509175132 87 150 1.7 1.7 0.00 0.00 0.00 68 1011.0
20260509174628 86 132 1.7 1.7 0.00 0.00 0.00 68 1011.4
20260509174123 85 256 1.7 1.7 0.00 0.00 0.00 67 1011.4
20260509173619 87 128 1.7 1.7 0.00 0.00 0.00 70 1011.0
20260509173115 87 146 2.6 2.6 0.00 0.00 0.00 71 1011.4
20260509172612 87 336 1.7 1.7 0.00 0.00 0.00 72 1011.4
20260509172108 86 228 0.9 0.9 0.00 0.00 0.00 73 1011.0
20260509171604 85 166 0.0 0.0 0.00 0.00 0.00 74 1011.0
20260509171100 85 154 0.0 0.0 0.00 0.00 0.00 74 1011.4
20260509170556 85 105 1.7 1.7 0.00 0.00 0.00 76 1011.0
20260509170053 85 154 0.0 0.0 0.00 0.00 0.00 77 1011.0
20260509165551 84 126 1.7 1.7 0.00 0.00 0.00 77 1011.0
20260509165047 83 87 1.7 1.7 0.00 0.00 0.00 80 1011.0
20260509164543 83 152 0.0 0.0 0.00 0.00 0.00 80 1011.4
20260509164044 81 285 0.0 0.0 0.00 0.00 0.00 81 1011.0
20260509163543 80 285 0.0 0.0 0.00 0.00 0.00 84 1011.4
20260509163037 80 285 0.0 0.0 0.00 0.00 0.00 84 1011.4
20260509162535 80 292 0.0 0.0 0.00 0.00 0.00 84 1011.7
20260509162031 81 292 0.0 0.0 0.00 0.00 0.00 83 1011.7
20260509161527 80 291 0.0 0.0 0.00 0.00 0.00 85 1011.4
20260509161022 80 300 0.0 0.0 0.00 0.00 0.00 84 1012.1
20260509160518 80 300 0.0 0.0 0.00 0.00 0.00 85 1011.7
20260509160014 80 276 0.0 0.0 0.00 0.00 0.00 84 1011.4
20260509155510 80 257 0.0 0.0 0.00 0.00 0.00 85 1011.4
20260509155006 79 147 0.0 0.0 0.00 0.00 0.00 85 1011.7
20260509154503 79 147 0.0 0.0 0.00 0.00 0.00 87 1011.7
20260509154001 79 147 0.0 0.0 0.00 0.00 0.00 87 1011.7
20260509153457 80 147 0.0 0.0 0.00 0.00 0.00 86 1011.7
20260509152954 79 147 0.0 0.0 0.00 0.00 0.00 87 1011.7
20260509152449 79 147 0.0 0.0 0.00 0.00 0.00 87 1011.4
20260509151947 78 147 0.0 0.0 0.00 0.00 0.00 88 1011.7
20260509151443 79 147 0.0 0.0 0.00 0.00 0.00 89 1011.4
20260509150941 78 147 0.0 0.0 0.00 0.00 0.00 90 1011.4
20260509150438 78 147 0.0 0.0 0.00 0.00 0.00 90 1011.4
20260509145936 78 147 0.0 0.0 0.00 0.00 0.00 89 1011.4
20260509145431 78 147 0.0 0.0 0.00 0.00 0.00 90 1011.4
20260509144927 79 147 0.0 0.0 0.00 0.00 0.00 90 1011.4
20260509144424 78 147 0.0 0.0 0.00 0.00 0.00 92 1011.0
20260509143921 78 147 0.0 0.0 0.00 0.00 0.00 92 1011.0
20260509143418 78 147 0.0 0.0 0.00 0.00 0.00 92 1011.4
20260509142914 78 147 0.0 0.0 0.00 0.00 0.00 92 1011.4
20260509142411 78 147 0.0 0.0 0.00 0.00 0.00 92 1011.0
20260509141907 77 147 0.0 0.0 0.00 0.00 0.00 93 1011.0
20260509141404 77 147 0.0 0.0 0.00 0.00 0.00 94 1010.7
20260509140901 77 147 0.0 0.0 0.00 0.00 0.00 94 1010.7
20260509140357 77 147 0.0 0.0 0.00 0.00 0.00 95 1010.7
20260509135855 76 147 0.0 0.0 0.00 0.00 0.00 95 1010.7
20260509135353 76 147 0.0 0.0 0.00 0.00 0.00 95 1011.0
20260509134850 76 147 0.0 0.0 0.00 0.00 0.00 95 1011.4
20260509134347 76 147 0.9 0.9 0.00 0.00 0.00 95 1011.0
20260509133843 76 146 0.0 0.0 0.00 0.00 0.00 95 1010.7
20260509133340 76 146 0.9 0.9 0.00 0.00 0.00 95 1011.0
20260509132839 76 146 0.0 0.0 0.00 0.00 0.00 96 1011.7
20260509132337 76 146 0.0 0.0 0.00 0.00 0.00 96 1011.7
20260509131834 76 146 0.0 0.0 0.00 0.00 0.00 97 1011.7
20260509131331 75 146 0.0 0.0 0.00 0.00 0.00 97 1011.7
20260509130827 75 146 0.0 0.0 0.00 0.00 0.00 98 1011.7
20260509130323 75 146 0.0 0.0 0.00 0.00 0.00 98 1011.7
20260509125820 75 146 0.0 0.0 0.00 0.00 0.00 98 1011.7
20260509125316 74 146 0.0 0.0 0.00 0.00 0.00 98 1011.4
20260509124813 74 146 0.0 0.0 0.00 0.00 0.00 98 1011.4
20260509124309 74 146 0.0 0.0 0.00 0.00 0.00 98 1011.4
20260509123808 74 146 0.0 0.0 0.00 0.00 0.00 98 1011.4
20260509123305 74 146 0.0 0.0 0.00 0.00 0.00 98 1011.4
20260509122800 74 146 0.0 0.0 0.00 0.00 0.00 98 1011.4
20260509122257 73 146 0.0 0.0 0.00 0.00 0.00 99 1011.4
20260509121754 73 146 0.0 0.0 0.00 0.00 0.00 98 1011.4
20260509121251 73 146 0.0 0.0 0.00 0.00 0.00 98 1011.0
20260509120749 73 146 0.0 0.0 0.00 0.00 0.00 98 1010.7
20260509120247 73 146 0.0 0.0 0.00 0.00 0.00 98 1011.0
20260509115745 73 146 0.0 0.0 0.00 0.00 0.00 98 1010.7
20260509115241 73 146 0.0 0.0 0.00 0.00 0.00 98 1010.7
20260509114740 73 146 0.0 0.0 0.00 0.00 0.00 98 1010.7
20260509114238 73 146 0.0 0.0 0.00 0.00 0.00 98 1011.0
20260509113737 73 146 0.0 0.0 0.00 0.00 0.00 98 1011.0
20260509113233 73 146 0.0 0.0 0.00 0.00 0.00 98 1011.0
20260509112730 73 146 0.0 0.0 0.00 0.00 0.00 98 1011.4
20260509112227 73 146 0.0 0.0 0.00 0.00 0.00 98 1011.4
20260509111724 73 146 0.0 0.0 0.00 0.00 0.00 98 1011.4
20260509111221 73 146 0.0 0.0 0.00 0.00 0.00 98 1011.4
20260509110719 74 146 0.0 0.0 0.00 0.00 0.00 98 1011.4
20260509110215 74 146 0.0 0.0 0.00 0.00 0.00 98 1011.4
20260509105713 73 146 0.0 0.0 0.00 0.00 0.00 98 1011.4
20260509105210 73 146 0.0 0.0 0.00 0.00 0.00 98 1011.0
20260509104707 73 146 0.0 0.0 0.00 0.00 0.00 98 1011.4
20260509104204 73 146 0.0 0.0 0.00 0.00 0.00 98 1011.0
20260509103702 73 146 0.0 0.0 0.00 0.00 0.00 98 1010.7
20260509103159 73 146 0.0 0.0 0.00 0.00 0.00 98 1010.7
20260509102658 73 146 0.0 0.0 0.00 0.00 0.00 98 1011.0
20260509102154 73 146 0.0 0.0 0.00 0.00 0.00 98 1010.7
20260509101650 73 146 0.0 0.0 0.00 0.00 0.00 98 1010.4
20260509101147 73 146 0.0 0.0 0.00 0.00 0.00 98 1010.4
20260509100644 73 146 0.0 0.0 0.00 0.00 0.00 98 1010.0
20260509100141 73 146 0.0 0.0 0.00 0.00 0.00 98 1010.0
20260509095638 73 146 0.0 0.0 0.00 0.00 0.00 98 1010.0
20260509095135 74 146 0.0 0.0 0.00 0.00 0.00 97 1010.0
20260509094632 74 146 0.0 0.0 0.00 0.00 0.00 97 1010.4
20260509094129 74 146 0.0 0.0 0.00 0.00 0.00 97 1010.0
20260509093627 74 146 0.0 0.0 0.00 0.00 0.00 97 1010.0
20260509093124 74 146 0.0 0.0 0.00 0.00 0.00 97 1010.4
20260509092622 74 146 0.0 0.0 0.00 0.00 0.00 97 1010.7
20260509092120 74 146 0.0 0.0 0.00 0.00 0.00 97 1011.0
20260509091618 74 146 0.0 0.0 0.00 0.00 0.00 97 1011.0
20260509091114 74 146 0.0 0.0 0.00 0.00 0.00 97 1010.7
20260509090612 74 146 0.0 0.0 0.00 0.00 0.00 97 1010.7
20260509090109 74 146 0.0 0.0 0.00 0.00 0.00 97 1010.7
20260509085607 74 146 0.0 0.0 0.00 0.00 0.00 97 1010.7
20260509085102 74 146 0.0 0.0 0.00 0.00 0.00 97 1010.7
20260509084600 74 146 0.0 0.0 0.00 0.00 0.00 97 1011.0
20260509084057 74 146 0.0 0.0 0.00 0.00 0.00 97 1011.0
20260509083554 74 146 0.0 0.0 0.00 0.00 0.00 97 1010.7
20260509083050 74 146 0.0 0.0 0.00 0.00 0.00 97 1010.7
20260509082548 74 146 0.0 0.0 0.00 0.00 0.00 97 1010.7
20260509082045 74 146 0.0 0.0 0.00 0.00 0.00 97 1010.7
20260509081542 74 146 0.0 0.0 0.00 0.00 0.00 97 1010.4
20260509081038 74 146 0.0 0.0 0.00 0.00 0.00 97 1010.4
20260509080537 74 146 0.0 0.0 0.00 0.00 0.00 97 1010.7
20260509080035 74 146 0.0 0.0 0.00 0.00 0.00 97 1010.7
20260509075531 74 146 0.0 0.0 0.00 0.00 0.00 97 1010.7
20260509075030 74 146 0.0 0.0 0.00 0.00 0.00 97 1010.7
20260509074526 74 146 0.0 0.0 0.00 0.00 0.00 97 1010.7
20260509074023 74 146 0.0 0.0 0.00 0.00 0.00 97 1010.7
20260509073519 74 146 0.0 0.0 0.00 0.00 0.00 97 1010.7
20260509073016 74 146 0.0 0.0 0.00 0.00 0.00 97 1010.7
20260509072513 74 146 0.0 0.0 0.00 0.00 0.00 97 1010.7
20260509072009 74 146 0.0 0.0 0.00 0.00 0.00 97 1010.7
20260509071506 74 146 0.0 0.0 0.00 0.00 0.00 97 1010.7
20260509071004 74 146 0.0 0.0 0.00 0.00 0.00 97 1011.0
20260509070501 74 146 0.0 0.0 0.00 0.00 0.00 97 1010.7
20260509065956 74 146 0.0 0.0 0.00 0.00 0.00 97 1011.0
20260509065452 74 146 0.0 0.0 0.00 0.00 0.00 97 1010.7
20260509064948 74 146 0.0 0.0 0.00 0.00 0.00 97 1011.0
20260509064446 74 146 0.0 0.0 0.00 0.00 0.00 96 1011.0
20260509063944 74 146 0.0 0.0 0.00 0.00 0.00 96 1011.0
20260509063439 74 146 0.0 0.0 0.00 0.00 0.00 96 1011.0
20260509062936 74 146 0.0 0.0 0.00 0.00 0.00 96 1011.0
20260509062434 74 146 0.0 0.0 0.00 0.00 0.00 96 1011.0
20260509061931 74 146 0.0 0.0 0.00 0.00 0.00 96 1011.4
20260509061428 74 146 0.0 0.0 0.00 0.00 0.00 96 1011.4
20260509060925 74 146 0.0 0.0 0.00 0.00 0.00 96 1011.4
20260509060423 74 146 0.0 0.0 0.00 0.00 0.00 96 1011.4
20260509055918 74 146 0.0 0.0 0.00 0.00 0.00 96 1011.4
20260509055413 74 146 0.0 0.0 0.00 0.00 0.00 96 1011.4
20260509054910 74 146 0.0 0.0 0.00 0.00 0.00 96 1011.4
20260509054407 74 146 0.0 0.0 0.00 0.00 0.00 96 1011.4
20260509053905 74 146 0.0 0.0 0.00 0.00 0.00 96 1011.4
20260509053403 74 146 0.0 0.0 0.00 0.00 0.00 96 1011.4
20260509052901 74 146 1.7 1.7 0.00 0.00 0.00 96 1011.0
20260509052357 74 146 0.0 0.0 0.00 0.00 0.00 96 1011.4
20260509051855 74 146 0.0 0.0 0.00 0.00 0.00 96 1011.0
20260509051353 74 146 0.0 0.0 0.00 0.00 0.00 96 1011.4
20260509050850 74 146 0.0 0.0 0.00 0.00 0.00 96 1011.4
20260509050346 74 147 0.0 0.0 0.00 0.00 0.00 96 1011.4
20260509045843 74 147 0.0 0.0 0.00 0.00 0.00 96 1011.4
20260509045340 74 147 0.0 0.0 0.00 0.00 0.00 96 1011.4
20260509044837 74 147 0.0 0.0 0.00 0.00 0.00 96 1011.4
20260509044335 74 147 0.0 0.0 0.00 0.00 0.00 96 1011.4
20260509043831 74 147 0.0 0.0 0.00 0.00 0.00 96 1011.4
20260509043327 73 147 0.0 0.0 0.00 0.00 0.00 96 1011.4
20260509042823 73 147 1.7 1.7 0.00 0.00 0.00 96 1011.4
20260509042320 73 147 1.7 1.7 0.00 0.00 0.00 96 1011.7
20260509041817 73 147 0.0 0.0 0.00 0.00 0.00 96 1011.7
20260509041314 73 147 0.0 0.0 0.00 0.00 0.00 96 1011.4
20260509040812 73 147 0.0 0.0 0.00 0.00 0.00 97 1010.7
20260509040309 73 147 0.0 0.0 0.00 0.00 0.00 97 1010.7
20260509035806 73 147 0.0 0.0 0.00 0.00 0.00 96 1011.0
20260509035306 73 96 0.0 0.0 0.00 0.00 0.00 96 1011.0
20260509034759 73 96 1.7 1.7 0.00 0.00 0.00 96 1011.0
20260509034257 73 133 0.9 0.9 0.00 0.00 0.00 96 1011.0
20260509033754 73 133 0.0 0.0 0.00 0.00 0.00 96 1011.0
20260509033251 73 133 0.9 0.9 0.00 0.00 0.00 96 1011.0
20260509032748 73 133 1.7 1.7 0.00 0.00 0.00 96 1011.0
20260509032245 73 133 0.0 0.0 0.00 0.00 0.00 96 1011.0
20260509031742 73 133 0.0 0.0 0.00 0.00 0.00 96 1011.0
20260509031240 73 133 0.0 0.0 0.00 0.00 0.00 96 1011.0
20260509030738 73 133 0.0 0.0 0.00 0.00 0.00 96 1010.7
20260509030235 73 133 0.0 0.0 0.00 0.00 0.00 96 1010.7
20260509025732 73 133 1.7 1.7 0.00 0.00 0.00 96 1011.0
20260509025227 73 145 1.7 1.7 0.00 0.00 0.00 96 1010.7
20260509024722 73 145 0.0 0.0 0.00 0.00 0.00 96 1010.7
20260509024218 73 145 1.7 1.7 0.00 0.00 0.00 96 1010.7
20260509023716 73 145 1.7 1.7 0.00 0.00 0.00 96 1010.7
20260509023214 73 145 0.0 0.0 0.00 0.00 0.00 96 1011.0
20260509022709 73 145 0.0 0.0 0.00 0.00 0.00 96 1010.7
20260509022208 73 145 0.0 0.0 0.00 0.00 0.00 96 1010.7
20260509021704 74 144 1.7 1.7 0.00 0.00 0.00 95 1010.7